Regional Weather Roundup
Issued by NWS Northern Indiana

Home | Current Version | Previous Version | Text Only | Print | Product List | Glossary Off
Versions: 1 2 3 4 5 6 7 8 9 10 11 12 13 14 15 16 17 18 19 20 21 22 23 24 25 26 27 28 29 30 31 32 33 34 35 36 37 38 39 40 41 42 43 44 45 46 47 48 49 50

000
ASUS43 KIWX 182000
RWRIWX

KIWX WEATHER ROUNDUP
NATIONAL WEATHER SERVICE NORTHERN INDIANA
400 PM EDT SAT APR 18 2015

NOTE: "FAIR" INDICATES FEW OR NO CLOUDS BELOW 12,000 FEET WITH NO
SIGNIFICANT WEATHER AND/OR OBSTRUCTIONS TO VISIBILITY.

* THESE STATIONS ARE NOT UNDER NWS QUALITY CONTROL. THEY ALSO MAY NOT
  REPORT WEATHER SUCH AS PRECIPITATION OR FOG.

INZ001>027-182100-
NORTHERN INDIANA

CITY           SKY/WX    TMP DP  RH WIND       PRES   REMARKS
GARY*          CLOUDY    48  36  61 N12G23    30.08F
SOUTH BEND     CLOUDY    78  48  34 NE5       30.01F
GOSHEN         CLOUDY    76  50  40 E6        30.01F
ANGOLA*        SUNNY     75  45  33 N6        30.02F
FORT WAYNE     CLOUDY    78  47  33 CALM      30.01F
PERU/GRISSOM   PTSUNNY   77  48  35 E5        30.00F

$$
INZ028>050-182100-
CENTRAL INDIANA

CITY           SKY/WX    TMP DP  RH WIND       PRES   REMARKS
LAFAYETTE      MOSUNNY   76  48  37 E7        29.99F
KOKOMO*        PTSUNNY   77  48  36 SE7       30.00F
MUNCIE*        PTSUNNY   78  48  34 E10       30.01F
INDIANAPOLIS   CLOUDY    75  46  35 SE5       29.99F

$$
MIZ043>046-050>051-056>058-064>065-071>073-077>080-182100-
SOUTHWEST LOWER MICHIGAN

CITY           SKY/WX    TMP DP  RH WIND       PRES   REMARKS
BATTLE CREEK   MOSUNNY   74  36  25 E15G21    30.06F
BENTON HARBOR  PTSUNNY   59  38  45 N7        30.03F
COLDWATER*     PTSUNNY   75  42  30 E6        30.03F
HILLSDALE*     PTSUNNY   76  40  27 E7        30.05S
HOLLAND        MOSUNNY   76  37  24 E13       30.06F
GRAND RAPIDS   MOSUNNY   71  37  28 E17       30.08F
KALAMAZOO      FAIR      77  38  24 NE9G16    30.04F
STURGIS*       PTSUNNY   75  46  35 E6        30.02F
THREE RIVERS*  FAIR      77  45  31 E9        30.03F

$$
OHZ001>008-015>018-024>025-182100-
NORTHWEST OHIO

CITY           SKY/WX    TMP DP  RH WIND       PRES   REMARKS
DEFIANCE       CLOUDY    77  45  32 NE3       30.02F
FINDLAY        CLOUDY    74  48  39 NE20      30.03S
TOLEDO EXPRESS CLOUDY    66  40  38 E18G25    30.07R
TOLEDO METCALF PTSUNNY   63  36  36 E16G25    30.10S
LIMA           CLOUDY    78  48  34 VRB3      30.02F

$$
AND FOR LAKE MICHIGAN COASTAL AND OPEN LAKE BUOY OBSERVATIONS

STATION/POSITION TEMP    WIND        PRES    VSBY  WAVE
                 AIR SEA DIR/SP/G                  HT/PER
                 (F)     (DEG/KT/KT) (MB)    (MI)  (FT/S)
CALUMET HARBOR    45     330/ 15/ 20   N/A
MICHIGAN CITY     44     280/  5/  6   N/A
BURNS HARBOR      42     350/  8/  9 1019.0S
SAINT JOSEPH      47     350/  8/ 12 1017.6F
MICHIGAN CITY     41 47  330/  6/  8   N/A           2/ 3

$$
&&


USA.gov is the U.S. government's official web portal to all federal, state and local government web resources and services.